User: anonymous   Login
Location: Unspecified
(0.0000°N, 0.0000°E)
Time: 22:55:25
(UTC+00:00)
Language:

THOR ABLESTAR DEB - Orbit

View from above orbital plane
View from above orbital plane
View from above satellite
View from above satellite

Ground track
Ground track

The orbit data is extracted from the following two-line orbital elements,

1 48815U 61015MT  21329.60641873  .00002307  00000-0  92558-3 0  9995
2 48815  65.8163  39.5425 0043157 253.9290 105.7046 14.29649249410979
Epoch (UTC): 25 November 2021 14:33:14
Eccentricity: 0.0043157
inclination: 65.8163°
perigee height: 762 km
apogee height: 824 km
right ascension of ascending node: 39.5425°
argument of perigee: 253.9290°
revolutions per day: 14.29649249
mean anomaly at epoch: 105.7046°
orbit number at epoch: 41097

The dashed part of the orbit path shows where the satellite is in the earth's shadow,  

DLR